Theta_e
340 340 340 339 339 338 337 335 335 335 335 335 335 335 335 335 335 334 334 335 334 333 331 330 329 326 327 328 328 330 329 329 330 329 330 329 327 328 326 321 319 319 321 324 326 327 328 328 328 327 327 328 328 327 327 327 328 327 326 325 325 325 325 325 326 325 325 326 327 327 327 326 327 328 329 330 329 329 328 326 326 326 326 326 326
340 339 339 339 338 338 337 334 335 336 335 335 334 333 333 334 335 335 334 333 333 331 329 328 324 322 325 326 326 328 328 329 329 328 326 321 320 323 323 321 320 317 318 320 323 326 327 327 327 327 326 326 327 327 328 328 327 328 327 326 326 326 326 326 326 326 326 327 327 326 326 327 327 327 328 329 328 328 328 327 326 326 325 325 326
339 339 337 337 338 337 336 334 334 335 334 334 334 333 333 334 335 335 333 329 328 328 325 323 321 322 326 327 327 327 327 330 328 325 320 314 315 318 319 323 324 320 319 322 324 324 324 325 325 326 326 325 327 327 327 328 327 328 327 326 327 327 326 326 326 326 327 327 327 327 327 327 327 326 326 328 327 327 328 327 326 326 325 325 325
338 338 335 336 338 337 336 334 334 334 333 333 333 334 334 334 335 334 330 326 325 326 323 322 323 327 329 329 328 328 329 329 325 322 322 321 322 321 318 323 327 324 324 326 323 318 320 324 324 325 326 326 326 325 326 327 326 327 326 326 327 327 327 327 326 325 326 326 327 328 327 326 327 327 326 326 326 327 328 328 327 326 325 325 325
338 335 333 337 339 338 336 334 334 334 332 332 333 334 335 334 332 330 325 323 325 326 324 324 327 328 329 329 330 330 328 324 322 322 323 324 323 319 318 324 326 324 326 325 318 311 314 320 323 324 324 326 327 326 327 327 327 326 325 326 327 328 327 327 327 326 326 326 327 328 326 326 327 327 326 326 327 327 328 328 328 328 326 325 325
337 334 334 339 339 338 336 333 334 334 333 334 333 331 332 330 326 324 323 322 325 326 324 325 326 325 328 330 329 327 322 321 323 322 323 324 322 320 322 326 326 325 326 322 315 312 314 318 324 325 322 325 327 327 328 328 328 327 326 327 327 326 327 327 327 327 326 326 327 327 327 327 326 326 327 328 327 328 328 327 328 327 327 326 325
336 334 335 339 339 337 335 333 333 334 333 334 332 328 328 326 322 321 321 323 324 323 322 322 322 319 320 324 324 321 321 324 325 323 323 324 322 322 322 323 325 325 324 320 317 318 319 321 326 325 323 323 323 324 326 326 326 326 327 327 325 324 326 326 326 327 326 326 325 326 326 327 326 326 328 328 327 327 328 327 327 327 326 326 325
334 331 333 337 338 334 334 333 334 334 333 333 331 328 329 326 322 320 320 322 322 321 320 320 319 313 313 320 323 323 326 326 325 325 324 321 319 320 321 323 325 325 324 324 322 322 323 324 325 325 324 323 323 322 323 323 323 323 324 325 325 324 325 325 325 326 326 326 325 325 325 326 327 327 328 327 326 326 327 327 327 326 325 325 324
330 329 333 335 333 331 333 334 333 333 333 332 331 330 329 326 322 320 320 321 320 320 320 319 317 313 314 323 327 327 328 325 321 322 320 317 319 322 324 325 325 324 324 325 324 323 323 323 324 324 324 323 323 323 321 321 323 323 323 324 325 325 324 324 325 325 326 326 325 326 326 326 326 326 327 327 326 326 327 326 326 325 325 325 324
331 332 334 333 330 330 332 331 332 334 333 332 331 330 328 325 322 320 319 319 320 320 320 318 316 315 319 327 328 327 327 321 318 317 315 319 324 325 324 324 324 324 324 323 324 324 323 322 323 323 323 323 323 323 322 322 322 322 322 322 324 324 324 324 325 325 327 326 326 326 326 325 325 325 326 326 325 325 326 326 325 323 323 323 323
334 333 333 333 331 331 331 331 332 333 333 332 330 327 325 324 322 321 319 319 320 321 319 316 315 317 323 327 328 328 324 318 318 315 313 319 324 323 322 323 324 324 322 321 321 323 323 323 322 322 322 323 323 323 323 322 321 320 320 320 322 322 322 324 325 326 326 325 325 325 324 324 325 325 325 325 324 324 325 325 324 322 321 322 322
334 333 333 332 331 332 332 332 332 331 330 331 328 326 325 323 322 321 320 321 321 321 319 317 318 321 324 326 328 326 318 314 317 313 312 318 322 322 324 325 324 322 318 316 316 319 320 321 321 320 321 323 322 321 321 319 319 318 318 317 318 318 320 323 325 325 324 323 323 323 323 324 325 324 324 324 323 323 324 324 323 321 320 320 320
332 332 333 333 331 332 332 329 329 329 329 328 326 326 325 324 323 320 320 321 320 320 320 319 322 324 323 324 325 320 313 311 313 312 315 320 322 324 325 324 323 321 317 314 316 318 319 319 318 315 316 318 319 319 319 317 317 317 315 313 313 314 315 318 322 323 322 320 320 320 321 322 322 322 323 323 323 323 323 323 322 321 319 319 318
330 330 332 334 332 332 331 328 328 329 328 326 325 325 325 324 324 321 321 322 320 320 321 320 321 322 321 318 316 313 309 310 312 315 319 322 322 324 324 323 323 321 315 313 315 315 315 315 313 309 309 311 315 318 319 318 317 315 311 308 308 308 309 310 315 318 318 317 317 317 317 318 318 319 321 323 323 322 321 322 321 320 319 318 317
329 328 329 332 330 329 330 329 329 329 329 327 324 324 324 323 323 323 323 323 320 320 321 321 320 320 319 314 310 309 309 311 317 319 321 323 321 322 324 324 323 320 313 311 311 309 307 308 307 306 307 307 311 315 316 315 313 310 308 307 307 308 306 306 309 313 315 315 315 314 314 315 316 317 319 321 321 321 320 319 320 320 318 317 315
329 327 328 330 328 327 329 331 331 330 329 328 325 324 323 323 324 326 324 323 321 321 322 323 320 318 320 315 311 311 311 314 320 320 320 321 321 322 323 323 322 318 312 309 308 306 306 306 305 306 306 307 310 311 310 310 307 306 307 308 308 308 307 306 306 309 312 315 316 315 313 313 314 316 318 320 319 319 319 319 318 317 317 316 314
329 329 329 328 328 329 330 331 332 331 330 330 328 327 326 326 327 328 326 323 322 322 323 323 320 318 321 319 316 316 313 315 320 318 316 319 321 323 323 322 321 317 310 308 307 306 307 306 305 305 306 308 311 309 307 306 305 305 306 305 305 306 305 305 305 307 310 313 315 314 312 311 311 311 315 318 318 318 318 318 318 317 317 317 315
328 328 327 327 327 328 330 330 330 331 330 329 328 327 328 328 327 327 327 324 322 323 323 323 321 321 321 320 321 320 315 316 317 312 311 316 321 323 322 321 319 315 309 307 306 307 307 305 305 304 305 308 310 308 306 305 304 305 304 305 305 305 305 306 306 306 308 310 311 311 311 312 310 308 310 314 314 315 315 315 316 317 317 317 316
326 327 327 327 327 328 328 329 329 330 328 328 327 327 328 327 326 326 326 324 323 323 323 322 323 324 321 321 324 324 318 315 313 309 308 312 318 321 321 320 318 313 308 305 305 306 305 304 304 304 305 306 307 306 305 305 305 306 306 307 307 307 308 309 309 309 309 309 309 309 311 314 312 310 310 312 313 313 313 313 314 316 317 317 316
328 328 328 327 326 327 327 326 328 329 328 327 327 328 327 326 325 325 324 323 323 323 324 324 323 323 322 324 326 325 321 316 311 308 308 310 316 320 320 319 316 312 308 305 305 305 304 304 305 305 305 305 305 306 306 307 308 308 308 309 310 311 311 310 312 313 313 312 310 309 310 313 314 313 312 312 313 313 313 313 314 314 316 317 317
329 330 329 327 326 326 325 325 328 329 328 326 326 326 326 326 326 325 323 324 324 324 324 325 323 322 323 326 326 324 323 319 313 309 308 311 316 318 317 314 313 312 308 305 306 306 305 305 306 306 307 307 308 308 308 308 309 309 309 310 311 313 311 310 312 313 312 312 312 311 310 310 312 313 314 314 314 314 313 314 314 314 315 316 316
329 329 329 329 328 327 326 326 327 328 328 328 327 326 326 326 326 325 324 324 324 325 325 325 324 322 322 324 324 323 324 322 318 311 309 312 315 314 312 310 311 312 311 310 311 310 308 307 307 308 308 309 309 309 309 309 309 309 309 309 311 313 311 310 311 312 311 310 311 310 310 309 310 313 315 315 315 315 314 314 315 315 315 315 315
328 328 328 328 328 327 327 326 326 327 328 328 328 326 326 327 327 325 325 324 323 324 326 327 325 321 321 323 322 323 324 324 322 316 311 311 311 311 310 308 310 311 312 316 316 313 312 312 311 310 309 309 309 309 309 309 309 309 309 309 309 310 310 309 309 312 313 312 311 310 309 309 309 311 314 314 315 315 315 315 315 315 315 315 315
327 327 327 327 326 326 326 326 326 327 327 327 327 327 328 328 328 327 326 325 325 324 325 327 325 322 322 323 322 323 324 325 324 319 315 312 310 310 309 310 314 314 314 318 317 315 316 316 315 315 312 310 310 309 309 309 309 309 309 309 310 311 312 312 312 314 316 316 315 314 313 312 310 309 311 313 314 315 316 315 315 316 316 315 315
327 326 327 326 326 326 326 326 327 327 327 326 326 327 328 328 328 328 328 327 327 326 326 326 325 323 324 325 324 324 325 326 324 320 319 317 313 311 310 311 318 319 316 318 317 315 316 317 317 318 316 314 312 310 309 309 309 309 310 312 313 315 316 316 316 317 317 317 317 317 318 316 314 312 313 315 315 315 315 315 315 315 315 315 315
327 327 326 326 326 327 328 327 327 326 326 326 326 326 327 327 328 329 328 327 325 324 325 327 327 325 325 324 323 323 325 327 325 321 322 320 317 317 314 312 318 320 318 319 319 316 317 317 316 317 317 317 316 315 313 313 313 312 313 315 316 317 317 316 317 317 317 317 317 318 319 319 317 316 315 316 315 314 315 314 314 315 314 314 315
326 326 325 325 325 326 328 327 326 325 324 323 324 326 327 327 328 328 327 327 327 325 325 327 327 327 327 326 325 325 326 327 325 323 323 321 319 319 317 315 319 320 318 319 319 317 317 317 317 317 317 317 318 318 318 318 318 318 318 318 318 319 318 317 317 317 317 317 316 316 317 318 318 317 316 315 315 315 315 314 314 314 313 314 314
325 325 324 325 325 324 325 325 325 325 324 322 323 325 326 326 327 327 327 327 327 327 326 326 326 327 327 327 327 327 327 326 326 325 323 321 320 320 318 316 319 320 319 319 319 318 317 316 317 318 317 317 318 318 319 319 320 320 320 319 320 320 319 319 318 319 319 319 318 318 318 318 318 317 316 316 316 316 315 314 314 314 314 315 315
323 323 323 323 323 323 324 324 325 324 324 324 324 324 325 325 326 326 326 327 326 326 326 326 326 326 326 326 326 327 327 326 326 324 321 320 321 321 319 317 317 318 319 319 319 319 318 317 317 317 318 318 318 318 319 319 319 319 319 320 321 321 321 320 320 320 320 319 319 319 319 318 318 318 317 317 317 317 316 315 315 315 315 315 315
321 321 321 321 321 322 321 322 323 323 323 324 324 324 324 324 325 325 325 325 325 325 325 325 326 326 326 326 326 326 326 326 326 324 323 322 323 323 321 319 319 318 319 319 319 319 318 318 318 318 318 319 318 318 319 318 319 320 320 321 322 321 320 319 318 318 317 316 318 320 318 317 318 319 318 318 318 317 317 316 316 316 316 315 315
317 317 317 317 317 317 318 318 320 321 321 321 322 322 322 322 323 323 324 324 324 324 324 324 324 324 325 326 325 325 325 326 325 325 325 324 324 324 323 321 321 320 319 319 319 319 318 318 319 319 319 320 319 319 318 317 317 318 319 320 320 320 319 318 317 317 317 316 317 319 317 316 318 320 319 318 317 317 317 317 317 316 316 316 316
310 310 311 311 311 312 312 313 314 315 317 317 318 318 318 318 319 320 321 322 322 323 322 322 322 322 323 324 324 324 324 325 325 324 324 324 324 324 323 323 323 322 321 320 319 319 319 318 319 319 319 320 320 320 319 317 317 316 316 318 320 320 319 318 317 316 317 316 316 316 316 316 318 319 319 318 317 317 317 317 317 317 317 316 316
307 307 307 307 308 308 309 309 310 311 312 313 313 314 314 315 316 317 318 318 320 321 320 320 321 321 321 321 321 322 322 323 324 323 323 324 323 323 323 323 322 322 321 320 320 320 320 319 318 318 319 320 320 320 319 318 317 316 315 316 318 319 318 317 317 316 316 317 316 316 317 316 316 318 318 316 315 316 317 317 317 317 317 316 316
306 306 306 306 306 306 307 307 308 308 309 310 311 311 312 313 313 314 315 315 316 317 316 317 317 317 317 318 319 319 320 320 322 322 322 323 323 323 323 322 321 320 320 319 319 319 319 318 318 317 319 320 320 319 318 317 317 316 315 316 317 318 317 317 317 316 316 316 317 317 317 315 315 317 316 312 311 312 315 317 318 317 316 316 316
307 307 307 306 306 306 306 307 307 307 308 308 309 309 310 311 311 312 313 314 314 314 314 314 314 314 314 314 315 316 316 316 318 319 319 320 321 322 321 320 319 319 318 317 318 317 317 317 317 318 319 319 318 318 317 317 317 316 316 317 317 317 317 316 316 315 316 316 316 316 316 315 315 316 315 312 309 309 311 313 314 314 314 314 315
305 306 306 307 307 307 306 306 307 308 308 308 308 308 308 308 309 310 311 312 312 312 312 312 313 313 313 313 313 313 313 313 314 315 315 316 318 319 319 319 318 317 316 315 316 315 314 314 315 317 319 319 318 317 317 317 318 318 318 317 317 317 316 315 315 315 315 316 315 315 315 315 315 315 314 312 309 308 309 308 309 311 310 309 312
303 303 304 304 305 306 306 306 307 307 308 308 307 308 308 308 308 308 309 309 309 309 309 309 310 310 311 312 312 313 313 313 313 313 314 313 314 316 317 318 318 318 317 316 316 315 314 313 312 313 316 318 318 317 317 318 318 317 317 317 317 317 315 315 315 315 314 314 315 315 314 314 313 314 313 312 310 309 308 305 306 309 308 307 310
303 303 303 302 303 304 304 304 305 306 307 308 307 307 308 308 308 308 308 308 308 308 307 307 308 308 308 309 310 311 312 312 313 313 313 313 313 313 314 315 316 317 317 317 318 318 317 316 315 314 315 316 316 316 316 316 316 316 317 317 317 316 314 314 315 314 314 314 313 313 313 313 313 313 312 311 309 308 308 306 307 309 308 307 308
302 302 302 302 302 302 302 301 301 302 303 305 306 306 307 308 308 308 308 307 307 307 307 306 306 307 307 307 308 309 310 311 312 312 313 313 313 313 313 313 314 315 315 316 317 317 317 317 317 316 314 314 315 315 314 314 314 316 317 317 315 314 314 315 314 313 313 313 309 307 309 310 310 309 307 306 305 306 308 309 309 309 308 307 307
300 300 300 301 301 301 301 300 299 299 299 300 301 301 302 303 304 305 305 305 305 306 306 306 305 305 305 305 306 307 308 308 310 310 311 312 312 312 313 313 313 314 314 315 315 316 316 316 315 315 314 313 314 314 313 313 314 314 315 314 312 312 314 315 314 313 313 311 307 304 305 305 304 304 304 303 303 305 307 309 310 310 309 309 309
300 299 299 300 301 301 301 301 300 299 299 299 298 297 297 298 299 300 302 303 303 303 303 304 304 303 302 303 304 306 307 307 307 307 308 308 309 310 311 312 313 313 313 313 313 314 314 313 313 313 313 312 313 313 312 312 311 309 309 308 307 311 314 314 314 314 313 311 309 306 304 304 303 303 304 303 303 304 307 310 311 311 310 310 310
300 299 298 299 301 302 301 301 300 300 299 298 297 297 298 298 298 299 301 301 299 299 299 299 300 301 301 301 302 302 303 303 303 303 304 305 306 307 308 310 312 313 313 312 312 312 312 312 311 312 312 312 311 310 310 311 310 308 307 305 304 310 314 314 313 313 312 312 311 308 305 305 304 304 304 304 303 303 306 309 310 310 310 309 309
301 300 298 298 301 301 300 300 301 300 299 298 297 298 299 298 298 299 299 298 297 297 297 297 298 299 299 299 299 299 300 300 300 301 301 302 303 304 305 306 308 310 311 312 312 312 311 311 310 310 310 311 310 309 308 308 308 307 307 305 304 308 312 313 313 313 312 312 311 308 306 305 305 305 305 304 303 302 304 308 310 310 309 308 307
300 299 297 298 300 300 300 301 301 300 299 299 299 299 299 298 298 298 298 298 298 298 298 298 298 297 297 297 298 299 300 301 302 302 302 302 303 304 304 305 306 308 309 311 312 312 311 311 311 310 310 310 309 309 308 306 304 303 304 304 302 304 309 313 312 312 312 312 310 310 308 306 305 306 305 304 302 302 303 306 308 308 307 306 305
300 298 297 299 300 300 300 301 300 300 300 300 300 300 300 300 300 300 299 299 300 300 300 300 300 299 299 299 299 299 300 301 301 302 302 303 303 304 304 305 306 307 308 309 310 311 311 311 311 310 310 309 309 310 308 305 302 301 302 302 301 302 307 311 311 310 310 311 310 310 309 307 305 305 305 303 302 302 302 303 304 304 304 303 302
300 299 298 299 300 300 300 300 300 300 300 299 299 300 300 300 299 299 299 299 299 300 300 300 300 300 300 300 300 300 300 300 300 301 302 302 303 303 303 304 304 305 306 307 309 310 310 311 311 310 310 309 309 310 309 305 302 303 303 303 303 303 304 308 309 309 309 310 310 309 308 306 304 304 303 302 302 302 302 302 302 302 302 301 301
300 299 299 299 300 299 299 299 299 299 299 299 299 299 299 299 299 299 299 299 299 299 299 299 299 299 299 299 300 300 300 300 300 300 301 301 302 302 302 303 303 303 304 305 306 307 308 309 310 310 310 309 309 310 310 307 303 303 304 304 304 304 303 304 306 308 310 310 309 309 307 305 304 303 302 302 303 303 303 302 302 301 300 300 300
299 299 299 299 299 299 299 299 299 299 299 299 299 299 299 299 299 299 299 299 299 299 298 298 298 298 299 299 299 299 299 299 300 300 300 300 300 301 301 302 302 303 303 303 304 305 306 307 308 308 309 309 309 308 309 308 305 304 303 304 304 304 304 303 303 305 308 309 308 307 305 304 303 303 303 303 303 303 303 302 301 300 299 299 299
299 299 299 299 299 299 299 299 299 299 299 299 299 299 299 299 298 298 298 298 298 298 298 298 298 298 298 298 298 298 299 299 299 299 299 300 300 300 300 301 301 302 303 303 304 304 305 307 309 309 308 309 308 307 307 307 307 306 304 303 304 303 304 304 303 303 305 307 306 305 304 303 303 303 304 304 303 302 301 300 299 299 298 298 298
299 299 299 299 299 298 298 298 299 299 299 299 299 299 298 298 298 297 297 297 297 297 297 297 297 297 298 298 297 297 297 298 298 298 298 299 299 300 300 300 300 301 302 302 302 302 303 306 308 308 308 308 307 307 307 307 308 307 304 303 303 304 304 304 303 303 304 305 304 303 303 304 304 304 304 303 301 300 299 299 299 298 297 297 297
299 299 299 299 298 298 298 298 299 299 299 299 298 298 298 298 297 297 297 296 296 296 297 297 297 297 297 297 297 297 297 297 297 297 297 297 298 299 300 300 300 300 300 301 301 301 302 302 304 305 306 307 307 307 306 306 307 307 305 303 303 304 304 304 303 303 304 305 304 304 304 305 305 304 303 301 300 299 299 298 298 297 296 296 296
Wind_Speed
17 16 16 13 12 15 14 14 17 19 21 20 20 20 18 17 17 15 14 13 14 15 14 15 14 13 12 10 10 8 6 8 7 5 6 5 5 4 4 3 3 4 4 2 2 2 1 3 3 2 2 3 3 4 5 3 3 3 3 3 3 4 4 5 5 5 5 4 3 4 6 5 4 3 3 3 1 1 3 6 7 7 6 5 6
17 15 14 12 12 16 15 15 18 21 22 20 19 20 18 16 15 14 14 13 14 15 15 14 13 12 11 9 9 6 5 5 5 7 6 5 6 6 5 5 3 5 5 3 2 2 2 3 3 3 3 2 2 3 4 3 3 3 3 3 4 5 5 5 4 2 2 3 2 4 6 6 4 3 2 1 1 1 3 7 9 7 6 7 7
16 14 14 15 16 17 16 17 20 21 22 22 19 19 18 16 15 14 14 15 16 17 15 15 13 12 11 10 8 5 6 6 5 4 3 2 4 4 5 7 6 6 6 5 3 2 2 2 2 3 3 3 3 2 2 2 3 4 4 4 5 6 5 4 2 2 2 3 4 3 3 4 3 2 2 2 3 3 4 7 10 8 7 7 6
16 15 18 20 20 19 19 19 20 21 22 22 19 19 18 16 15 15 17 18 19 18 16 15 15 15 13 9 8 7 9 9 5 4 4 4 4 2 4 7 7 7 7 4 2 2 3 2 1 2 4 4 3 4 3 3 3 3 3 4 5 5 5 4 3 3 4 4 5 3 3 3 2 2 3 3 4 5 5 7 10 10 8 6 5
17 18 22 23 22 22 20 20 21 21 22 21 19 18 17 16 17 18 20 20 20 19 17 16 16 17 14 9 9 9 9 7 5 4 5 3 2 1 3 5 5 7 8 4 2 3 3 3 3 2 3 4 5 6 5 4 5 4 3 3 4 4 4 4 3 3 5 5 5 3 2 2 1 1 3 3 4 5 5 6 10 10 8 6 5
19 20 24 25 25 23 22 21 20 21 22 20 18 17 14 16 19 20 22 22 20 19 18 16 15 15 12 8 7 6 5 5 4 3 4 2 2 1 3 4 5 6 5 4 6 7 5 6 6 3 3 5 5 5 6 6 4 4 5 5 4 3 3 2 3 2 3 5 6 5 2 3 4 4 4 4 5 6 6 6 9 10 9 7 6
22 20 23 27 26 23 24 23 21 21 21 20 19 17 16 18 21 22 22 22 21 19 18 15 13 13 10 6 5 4 3 4 4 4 4 5 5 3 3 4 5 5 3 3 6 8 8 10 9 5 5 6 5 4 7 8 5 4 5 5 5 5 3 3 5 3 2 3 4 5 3 2 5 4 4 4 5 7 7 6 9 11 11 10 9
21 20 20 22 19 21 26 25 22 23 22 21 21 20 20 21 21 23 23 22 20 17 15 12 11 12 11 8 5 4 5 7 7 7 7 8 6 3 3 4 5 4 5 6 5 6 8 9 10 9 7 5 5 4 5 7 6 5 6 6 5 5 4 4 6 5 4 4 3 3 3 2 3 3 3 4 5 9 10 9 12 14 13 12 12
17 18 13 12 15 19 27 27 22 22 22 22 23 24 23 22 21 23 22 20 19 16 13 13 13 13 12 10 6 8 11 11 9 8 8 7 5 5 5 5 5 6 7 7 6 6 5 6 9 11 9 6 5 4 4 6 7 6 7 8 7 7 6 5 6 6 5 5 5 4 4 3 3 3 4 5 5 9 11 12 16 17 17 16 15
16 14 8 13 20 21 27 30 22 21 22 22 24 25 23 21 21 24 22 19 19 18 18 19 18 15 12 11 11 13 13 11 9 10 9 7 6 7 8 6 5 6 8 9 9 8 5 5 7 9 10 9 7 6 6 6 6 6 7 7 8 9 9 8 8 8 7 8 8 7 5 4 4 3 4 6 6 9 11 14 16 17 20 19 16
14 9 8 11 18 21 27 31 24 21 23 23 23 22 21 22 23 24 24 24 23 22 23 24 21 16 14 14 14 15 14 11 10 10 9 9 7 7 6 5 5 6 7 8 10 12 9 6 6 8 11 11 9 9 8 7 7 7 8 8 8 8 10 11 11 11 11 11 11 11 11 10 8 8 7 7 10 14 16 17 17 16 18 17 17
14 17 14 16 21 22 27 29 26 25 25 24 24 22 21 23 24 25 29 29 27 26 26 26 22 18 18 17 17 16 14 13 12 10 9 8 7 6 5 5 5 5 4 5 8 10 10 8 7 9 12 12 12 11 9 8 8 9 8 8 8 9 11 12 14 16 15 14 13 13 13 13 13 11 10 11 13 14 15 17 18 17 17 17 17
16 21 18 20 22 22 25 26 29 30 29 28 27 25 26 27 27 30 33 30 27 28 28 26 24 21 20 19 18 18 15 13 12 10 9 7 7 7 6 6 4 4 3 4 6 8 8 8 7 9 10 11 14 13 10 8 9 10 9 8 8 9 11 11 13 16 16 15 13 12 13 12 12 11 11 12 14 14 14 15 16 17 19 19 18
14 16 17 19 20 23 24 25 30 34 34 33 31 30 31 31 30 31 32 29 28 30 28 26 26 23 21 20 19 18 16 13 11 10 9 8 8 8 7 6 6 6 5 5 7 7 7 8 8 8 9 9 13 15 13 10 9 10 9 9 10 10 10 10 11 15 17 16 13 13 15 13 11 11 9 10 13 15 15 15 15 16 18 19 17
11 12 13 16 20 23 26 29 32 37 38 35 33 33 33 32 31 29 29 30 32 32 30 28 27 25 23 21 20 19 16 13 11 10 9 9 8 8 8 8 9 8 7 7 7 6 6 8 7 8 8 9 11 13 13 11 10 11 12 13 13 13 12 11 13 15 18 18 14 12 14 15 14 13 13 14 13 13 12 10 10 14 17 18 17
13 14 13 17 21 23 27 29 30 35 36 33 32 31 30 30 30 29 30 32 34 34 32 30 29 27 24 21 20 19 17 14 12 11 11 11 10 10 9 10 10 9 9 8 7 5 6 6 6 6 7 8 9 8 9 10 10 11 12 12 13 12 12 12 13 16 17 18 15 12 13 14 13 12 14 17 15 11 8 5 6 10 14 17 19
19 20 21 22 19 21 26 27 28 32 32 30 30 30 30 30 30 31 33 35 36 36 34 31 29 27 24 21 19 19 17 16 14 13 13 13 12 11 11 12 12 10 9 8 7 6 6 5 5 6 7 7 8 7 8 9 9 10 11 11 11 11 12 12 12 13 15 15 14 12 12 13 12 11 14 15 14 11 8 5 9 8 8 11 18
25 25 25 22 16 18 24 23 25 29 28 27 27 28 29 29 29 31 34 36 37 35 33 31 29 27 25 22 20 18 17 17 15 14 14 15 14 13 13 13 12 11 9 9 8 7 6 5 5 6 8 9 9 9 9 10 10 11 12 13 13 12 13 13 13 12 13 14 14 14 15 15 13 12 14 14 14 12 8 5 7 8 8 9 17
27 26 25 20 17 21 24 22 23 25 25 25 23 23 25 26 28 30 33 35 35 33 31 30 29 27 25 24 21 19 18 17 15 14 15 16 15 14 14 14 13 10 9 9 8 7 6 6 7 8 9 10 10 11 11 12 12 12 12 13 13 12 13 13 13 13 12 11 12 13 15 15 13 12 14 14 14 13 10 7 5 8 12 12 14
30 28 26 24 23 25 24 22 21 22 24 24 22 20 22 25 28 29 30 32 31 30 29 28 27 27 25 23 22 20 18 16 15 14 15 16 16 14 15 15 13 10 9 8 8 8 7 8 8 9 9 10 11 11 12 12 11 11 11 11 11 9 9 10 11 10 10 9 9 10 11 12 12 13 13 12 12 12 12 10 7 7 12 13 8
29 26 25 26 25 23 22 21 20 20 22 23 21 20 22 24 26 26 26 27 27 27 27 26 26 25 25 24 22 20 17 15 15 15 15 16 16 16 16 15 12 11 9 9 9 8 8 9 9 10 10 10 10 10 10 9 8 8 8 8 9 6 5 7 8 6 6 7 7 6 6 8 10 12 12 10 9 9 9 11 9 8 12 12 7
24 24 23 23 24 22 22 22 21 20 21 21 21 23 24 24 25 25 25 24 24 26 26 26 25 25 25 22 20 18 17 16 16 16 16 17 17 17 16 14 13 11 10 9 9 9 9 9 10 10 10 9 9 8 8 6 6 5 4 5 6 4 2 3 3 3 2 3 3 2 3 5 6 9 11 8 7 8 8 9 10 10 11 11 9
21 22 21 20 21 22 22 23 21 20 19 19 20 22 23 22 22 24 24 23 23 24 25 25 25 26 25 23 20 18 18 17 16 16 17 18 18 17 14 13 12 11 11 9 8 9 9 9 9 9 9 9 8 8 6 5 4 3 2 2 2 1 1 1 1 3 2 3 2 2 1 1 3 6 8 9 9 10 8 4 5 6 6 8 10
19 20 21 20 20 20 21 22 20 18 18 18 19 18 18 18 18 19 21 21 20 20 23 24 24 25 25 24 21 19 19 18 17 17 17 16 17 16 14 13 11 10 11 10 9 9 9 8 8 8 8 8 8 8 6 5 4 4 4 4 5 4 3 3 0 2 2 5 4 3 4 2 2 4 5 6 7 8 6 2 3 4 3 6 10
19 19 20 20 19 17 17 18 17 16 14 15 17 16 15 16 17 18 18 17 16 15 17 19 21 23 23 22 20 18 19 19 17 16 15 14 14 15 14 13 11 10 11 10 10 10 9 9 9 8 8 8 8 8 7 6 6 6 6 6 6 5 4 3 3 3 5 6 3 2 3 3 2 3 4 5 6 7 7 6 6 7 6 6 8
20 19 19 18 17 16 14 13 14 14 12 14 16 15 14 14 16 17 17 14 13 12 13 15 18 20 21 21 21 20 20 20 19 18 15 13 12 12 12 12 11 10 12 11 11 10 10 10 9 9 9 8 8 7 6 6 7 7 7 8 7 6 6 5 5 5 6 7 6 3 3 4 3 2 5 7 6 6 8 8 6 7 8 5 6
19 19 18 17 16 15 14 12 12 12 12 12 14 14 14 14 13 14 15 13 12 11 12 14 15 16 18 19 20 20 20 20 20 20 18 15 14 13 12 12 11 10 11 12 12 11 11 11 10 10 10 9 8 7 6 7 9 8 8 9 9 9 9 7 7 7 7 9 9 6 8 9 7 5 5 7 7 5 6 8 8 8 7 4 3
20 19 18 17 16 15 14 13 11 11 11 11 12 13 14 14 12 12 12 11 11 11 11 12 12 12 13 15 16 16 17 17 18 19 18 16 16 16 14 12 11 10 11 12 12 12 12 13 13 11 10 10 11 11 10 11 13 12 11 11 11 12 11 10 9 8 8 9 9 8 9 10 9 9 9 8 8 7 6 8 9 11 10 8 7
20 20 20 19 17 15 14 13 12 10 10 10 10 10 12 12 11 10 9 9 10 10 9 9 9 9 9 9 10 10 11 13 14 15 15 15 16 17 17 16 14 14 14 15 14 14 14 15 15 13 13 15 17 17 17 17 16 14 13 13 13 15 15 13 11 10 11 11 10 9 9 10 10 11 10 9 9 8 8 9 10 11 11 10 8
21 21 22 21 20 18 15 14 13 12 12 12 12 10 10 11 11 10 8 8 8 8 8 8 7 8 9 8 8 8 8 10 11 11 13 15 16 17 19 20 19 19 20 19 18 18 17 18 18 17 18 20 21 21 21 19 16 14 14 15 16 17 17 14 13 12 13 14 14 13 13 12 11 10 10 10 10 10 10 11 11 11 10 9 8
23 23 23 23 22 21 19 17 15 14 13 13 13 13 12 12 11 10 10 9 8 7 8 8 6 6 7 6 6 7 7 7 7 8 10 14 15 16 18 19 19 20 20 20 20 20 20 21 21 21 22 21 20 20 20 19 18 18 18 18 20 20 19 16 15 15 16 16 15 15 15 14 12 10 10 11 12 12 12 12 11 10 10 8 8
25 24 25 25 24 22 21 20 18 17 15 14 14 14 14 13 12 9 9 10 9 8 7 8 7 7 7 7 6 6 6 6 6 6 7 10 12 12 13 15 17 18 18 20 22 22 22 22 22 23 22 21 20 20 18 18 19 20 20 21 22 23 21 19 18 19 18 16 15 16 16 15 13 10 10 11 13 12 12 12 11 10 10 9 9
26 27 26 26 25 24 23 22 21 20 19 16 15 15 14 13 13 11 9 10 10 8 7 8 8 7 7 7 7 6 5 5 5 5 6 7 7 7 8 9 11 12 13 16 19 22 23 24 24 23 22 21 22 21 21 20 20 20 21 21 23 23 22 20 19 18 17 16 16 16 15 14 12 10 10 11 12 12 11 11 10 10 10 10 11
27 26 26 25 25 24 23 22 21 20 19 18 17 16 14 13 14 13 11 10 10 9 9 10 9 7 7 7 7 6 5 4 4 3 4 5 6 8 8 8 8 8 9 10 13 17 19 22 23 22 22 23 24 23 23 23 23 22 22 21 22 22 20 17 15 14 14 15 15 14 13 12 11 10 10 10 9 10 11 11 10 10 9 10 11
22 21 21 20 20 20 21 20 19 19 20 19 18 19 18 14 13 12 10 10 10 9 10 10 9 8 7 7 6 5 5 5 4 2 1 1 3 5 6 7 8 8 8 9 10 12 15 18 20 21 22 25 26 25 24 24 24 24 23 21 21 19 16 13 11 10 10 11 11 11 11 10 9 9 10 10 8 7 8 8 8 9 10 10 11
19 17 15 13 12 13 14 15 14 14 15 17 17 17 17 16 15 16 14 12 11 11 11 10 10 10 8 7 7 5 4 4 2 1 1 1 2 4 5 5 6 6 7 8 9 10 11 13 15 18 20 23 26 25 24 23 23 23 23 23 20 15 11 10 10 10 11 11 9 9 8 7 8 10 10 9 8 6 6 7 8 10 11 11 10
17 15 14 11 9 8 8 9 8 8 8 9 10 10 11 12 14 17 17 14 10 12 14 13 10 10 10 9 7 6 5 3 2 2 3 2 2 3 4 5 5 5 6 7 8 9 10 11 13 15 18 22 25 25 23 22 21 21 22 21 17 12 10 9 9 11 13 13 13 13 12 12 12 12 10 8 8 8 8 9 9 10 11 11 10
12 13 13 12 10 8 8 7 7 4 3 4 6 6 5 5 6 7 10 10 7 7 11 13 11 10 11 10 9 8 5 3 2 2 4 3 3 4 5 5 7 7 7 9 9 9 10 11 13 15 18 21 22 22 20 18 18 19 19 17 15 13 11 10 11 12 15 16 15 16 17 17 15 13 11 10 9 9 10 9 8 9 10 9 8
11 11 12 12 11 10 10 10 10 9 7 6 8 9 7 4 3 3 5 9 8 6 7 10 10 9 9 9 9 9 8 6 5 5 5 4 5 6 6 7 9 10 10 10 11 11 12 13 14 15 17 18 18 18 16 14 16 18 17 16 16 13 12 14 15 15 17 16 15 17 18 17 15 12 10 10 9 9 10 9 7 7 7 8 8
10 9 9 9 8 7 7 8 9 9 9 8 8 8 8 7 6 6 6 7 8 8 10 11 12 13 11 9 8 8 9 8 9 10 10 9 9 9 8 8 10 11 11 12 13 13 14 15 14 13 14 15 16 15 13 13 16 18 17 17 16 14 15 18 18 16 17 15 14 14 15 14 13 11 9 8 8 9 10 11 10 9 9 9 12
7 8 9 7 5 5 5 5 4 5 6 6 7 7 7 6 6 5 4 7 10 10 11 12 14 16 14 11 9 10 11 12 13 15 16 16 14 13 12 10 10 12 13 13 14 14 14 16 16 14 14 15 16 15 15 16 17 17 17 18 19 17 16 18 20 17 15 14 12 12 13 12 10 9 7 7 7 8 11 14 15 15 15 15 16
7 6 7 8 6 4 4 4 4 3 3 4 6 6 6 6 5 5 8 12 14 15 15 16 15 15 15 15 16 17 18 18 19 20 20 20 18 17 16 14 13 13 14 15 15 15 15 16 17 17 17 17 17 18 18 18 18 18 18 18 21 22 17 17 20 18 14 13 10 9 10 9 7 6 6 6 6 7 11 16 17 17 17 16 15
7 4 4 7 6 4 4 5 5 5 6 7 6 5 6 7 7 9 12 15 15 16 18 18 18 18 18 19 19 19 19 20 20 19 20 21 22 21 21 20 18 17 16 17 18 18 18 18 18 19 19 19 19 21 22 20 20 21 21 20 22 25 20 15 16 19 18 16 12 9 8 7 6 7 7 7 7 8 11 16 17 16 16 16 15
5 3 4 6 5 5 6 6 6 7 8 9 8 7 8 9 10 11 13 14 15 16 17 19 20 21 22 22 20 19 17 17 17 17 18 19 20 21 22 23 22 21 20 20 20 20 20 20 20 21 20 20 21 23 23 23 21 21 23 22 22 24 23 16 14 17 20 19 15 13 10 8 7 8 8 8 8 8 11 15 17 17 18 18 18
4 4 5 6 5 5 6 6 7 7 8 8 8 8 9 9 10 11 11 12 13 14 15 16 17 18 19 20 20 20 19 18 17 17 17 18 19 20 21 21 21 22 23 23 23 23 23 22 23 23 21 21 22 23 23 22 21 21 21 21 20 22 22 19 17 17 17 17 17 16 14 11 9 10 9 8 8 9 10 13 14 15 16 15 14
4 4 6 6 5 5 6 6 7 7 7 7 7 7 8 8 9 11 11 12 13 14 14 14 15 15 15 16 17 18 19 19 19 18 18 18 19 20 21 21 22 22 23 24 25 26 25 25 25 25 23 22 22 22 23 23 23 22 22 21 20 21 22 22 21 19 17 17 17 16 15 13 12 11 10 9 8 8 9 10 10 10 10 9 8
5 5 7 6 5 5 6 6 6 6 7 7 7 8 9 10 11 12 12 13 13 14 15 15 15 16 16 16 17 17 18 19 18 18 18 18 19 19 20 21 22 23 24 25 26 27 29 31 31 29 28 27 23 21 22 24 25 24 23 22 22 22 22 23 24 22 20 18 17 16 15 13 12 11 10 9 9 9 9 10 10 8 6 6 7
5 5 5 5 4 5 5 5 5 5 6 7 8 9 10 11 12 12 13 14 14 14 15 15 16 17 17 17 17 17 17 18 18 17 18 19 19 20 21 21 21 21 22 23 23 24 26 30 33 35 35 34 31 26 23 24 25 25 25 24 24 24 23 23 25 25 23 21 19 17 15 14 13 12 11 10 10 10 11 10 6 4 4 5 7
5 5 5 5 4 4 5 5 5 5 6 8 9 10 10 11 12 13 13 14 13 14 15 14 15 15 15 15 16 16 16 17 17 18 19 19 18 18 20 22 23 23 23 22 22 21 19 19 24 29 33 35 34 31 26 24 25 27 27 26 24 23 21 21 22 24 24 22 20 17 17 17 15 13 12 10 9 8 8 7 4 4 5 5 4
4 4 4 5 4 4 4 5 4 5 7 8 9 10 11 12 13 13 13 12 12 12 12 12 13 13 13 14 15 16 16 17 18 19 20 21 22 21 19 19 20 24 28 29 28 25 20 15 15 19 24 28 31 32 30 27 25 25 26 26 22 20 20 22 23 24 23 22 20 19 19 18 16 14 12 8 6 6 7 7 6 6 8 9 8
3 3 3 4 4 4 4 4 5 6 8 9 10 11 13 13 14 14 12 11 11 11 11 11 12 12 14 15 16 17 18 18 19 19 20 22 24 25 25 22 19 20 25 29 32 30 27 24 22 20 19 20 24 28 31 29 26 25 25 26 22 20 21 23 23 23 23 22 21 20 20 17 15 13 10 8 10 11 10 8 8 5 6 9 10
Wind_Direction
181 178 176 162 160 177 187 179 174 177 172 171 175 171 160 152 157 160 156 149 135 127 125 125 124 120 113 114 121 127 138 132 132 157 165 151 135 123 118 132 144 129 123 119 101 110 124 109 130 156 163 185 203 197 196 201 203 211 216 211 220 229 219 220 233 235 226 216 219 237 237 247 251 225 220 226 158 76 149 148 161 175 183 192 182
176 173 177 166 172 187 185 173 173 174 166 165 172 169 161 155 155 155 153 144 131 129 128 121 117 117 114 115 121 126 132 140 171 186 192 183 162 163 152 128 117 123 121 118 111 110 127 119 117 105 104 136 152 174 193 199 189 191 186 172 182 192 191 197 218 231 229 222 223 241 234 232 241 232 213 195 113 67 83 112 136 156 152 163 180
168 162 171 174 177 184 180 171 172 174 164 161 167 164 160 157 153 152 148 139 133 135 134 126 124 125 116 108 110 118 136 159 190 177 161 149 140 159 144 113 94 88 78 88 125 134 115 100 105 105 91 92 99 117 167 180 180 175 166 168 172 164 160 173 197 186 176 197 201 224 232 201 203 220 180 134 99 86 63 92 116 132 135 143 158
151 161 178 178 174 180 180 168 169 172 160 157 163 158 151 150 152 151 143 137 135 135 135 132 132 128 121 126 144 162 174 177 174 140 114 104 110 139 138 120 116 113 101 112 177 176 131 109 89 97 94 91 87 86 95 108 118 141 161 170 164 148 146 155 168 179 182 193 194 201 216 183 185 224 163 110 79 87 78 86 103 116 128 129 132
146 174 189 180 170 179 176 161 165 166 154 156 159 147 142 147 151 148 142 140 139 139 138 137 137 134 136 154 168 184 194 174 144 128 112 109 144 163 122 114 113 121 127 148 158 137 146 124 79 50 100 114 100 88 91 109 111 98 98 121 148 160 155 151 157 180 195 209 216 210 183 152 130 153 139 104 76 87 83 81 91 99 110 118 126
163 188 194 179 168 171 167 157 159 157 151 154 150 144 149 150 147 145 144 145 145 145 143 142 144 140 142 162 178 194 189 147 137 131 112 138 194 117 122 129 120 124 135 150 134 129 136 123 103 44 53 89 97 105 103 97 89 85 98 103 115 142 149 137 123 140 203 212 224 229 173 129 133 127 126 113 89 82 76 80 87 90 102 114 118
175 197 194 181 171 162 158 155 154 153 152 152 148 156 160 145 142 146 147 148 149 148 144 145 144 136 136 154 172 172 160 165 175 157 157 198 203 179 168 147 131 135 111 94 119 125 119 114 114 90 54 58 64 93 107 103 97 101 109 98 97 113 120 123 117 115 149 154 199 223 215 166 147 119 109 122 106 92 81 80 89 91 101 109 109
187 208 201 188 174 155 154 154 153 153 154 155 152 158 156 144 146 152 151 153 152 145 146 153 147 141 142 141 149 171 199 210 192 179 198 205 195 163 132 110 119 120 88 75 79 95 104 113 124 117 96 80 62 62 106 124 127 121 116 109 103 104 102 112 113 114 130 114 108 161 180 197 179 153 139 136 119 111 100 84 87 93 101 106 105
207 220 205 158 116 126 149 153 153 152 155 160 153 152 155 152 154 156 155 160 159 151 160 172 166 162 153 144 175 211 218 220 202 196 203 187 153 132 145 154 147 132 121 116 92 74 68 91 120 122 116 118 106 90 107 119 115 110 113 112 102 100 102 106 112 113 118 115 114 121 124 147 163 169 155 131 112 118 115 99 94 96 99 99 98
212 213 180 121 98 108 140 149 152 151 154 159 153 154 160 162 163 161 158 165 170 167 172 180 177 175 162 160 197 219 223 221 206 203 193 167 159 173 183 175 155 153 151 144 129 114 84 74 108 125 127 125 114 101 94 99 109 110 112 111 105 106 107 104 108 111 108 112 117 109 92 101 121 120 130 133 121 122 122 112 102 98 100 99 94
186 144 118 124 116 116 132 146 155 154 158 163 161 163 164 163 164 168 172 178 183 176 172 176 178 178 171 177 204 219 219 209 201 204 188 170 179 185 181 163 171 194 185 171 154 142 140 137 121 120 126 123 114 106 101 101 111 117 120 121 117 113 112 109 103 98 96 99 99 90 79 80 96 104 108 120 123 122 121 119 113 103 101 101 99
150 104 99 120 130 129 128 142 159 166 169 168 166 168 166 162 161 168 177 181 182 175 168 172 175 177 178 187 208 216 212 205 204 203 185 175 174 165 171 179 197 218 209 186 168 155 155 155 139 128 132 131 124 115 107 108 111 118 124 123 119 112 112 116 110 101 94 89 88 83 77 78 82 85 93 110 121 122 119 120 121 116 111 111 113
131 107 113 124 138 143 133 143 161 170 177 176 175 175 173 170 164 166 173 176 180 176 169 172 177 180 184 193 208 210 207 206 204 195 180 180 173 171 190 192 194 213 201 163 153 157 154 143 140 140 139 139 132 116 101 104 111 116 120 121 122 117 115 118 116 112 105 99 100 96 92 90 84 77 83 101 110 113 117 123 128 127 123 123 122
130 119 123 129 143 150 152 162 166 170 181 184 182 180 178 175 169 170 175 177 182 180 174 175 180 184 187 193 200 201 200 198 196 191 181 185 184 180 189 188 198 214 199 166 160 169 163 148 144 137 132 137 135 125 118 115 116 118 118 117 116 110 114 119 119 119 112 105 104 105 105 104 102 99 97 102 106 112 120 127 135 137 134 131 125
138 131 127 141 150 153 164 172 170 173 179 180 180 178 177 173 170 173 175 176 181 183 180 180 183 186 187 190 191 192 193 186 188 192 182 190 192 178 185 198 209 217 199 180 178 177 166 157 151 140 131 128 127 130 133 129 121 115 109 105 104 100 102 108 113 116 112 103 97 101 110 112 114 117 115 115 113 113 121 124 133 144 141 132 123
147 149 160 168 157 150 159 164 168 175 175 174 176 177 177 175 173 175 176 178 183 185 184 183 183 184 184 187 186 186 186 178 184 195 188 190 187 176 192 206 211 215 205 194 188 175 164 163 161 153 141 131 128 132 133 130 123 119 115 112 111 109 107 107 111 114 111 106 101 101 109 113 121 127 122 119 114 116 135 117 93 126 132 125 124
151 151 165 174 160 145 150 157 165 169 169 170 173 175 179 178 175 176 178 181 185 187 186 183 181 182 182 182 182 184 182 176 185 197 192 188 183 182 196 203 211 218 209 197 188 177 176 178 171 155 141 127 122 120 120 120 118 115 115 113 111 112 112 110 110 114 112 108 105 104 104 101 107 124 129 124 117 119 138 102 71 93 109 118 128
142 144 158 178 180 154 150 158 162 163 164 165 169 175 179 177 174 175 179 183 185 185 184 181 179 181 182 179 179 183 182 179 188 196 194 188 183 187 196 201 212 216 205 195 188 184 185 172 153 141 133 122 115 115 114 110 109 109 107 105 103 102 103 101 98 100 101 100 98 96 94 86 81 105 122 122 115 108 113 104 91 98 83 97 135
140 148 158 172 176 163 161 162 156 160 164 159 162 174 179 179 178 178 183 185 183 183 183 181 179 180 183 180 178 181 182 184 190 192 194 190 184 188 196 202 210 209 199 194 187 186 178 151 137 133 129 125 121 117 111 106 105 105 104 101 100 97 98 97 92 89 87 90 95 94 93 86 76 86 100 107 110 103 101 101 101 107 83 82 136
144 149 152 153 157 163 166 161 152 158 163 154 156 174 182 183 180 182 186 184 182 183 182 183 184 183 181 178 178 180 183 188 191 191 195 192 186 189 196 203 205 200 196 190 182 179 164 147 139 132 128 127 125 120 116 115 111 108 108 103 96 93 96 95 92 93 91 84 88 95 99 96 92 89 82 84 93 91 91 86 73 99 89 76 112
147 145 146 147 152 159 161 157 151 149 150 148 154 172 180 179 176 176 177 176 179 182 181 184 186 185 183 180 180 183 185 189 192 195 196 191 190 194 199 203 198 193 191 180 175 174 162 153 148 142 140 136 133 130 126 125 118 116 118 108 97 90 87 95 99 102 102 95 89 92 100 102 103 98 86 77 73 67 82 87 75 89 94 81 84
137 136 138 140 142 145 148 154 153 145 141 144 154 167 171 171 171 171 170 173 178 180 180 182 184 187 187 185 185 186 187 190 195 198 195 193 196 197 201 202 192 186 183 174 177 176 165 161 159 156 155 149 148 148 145 143 132 126 130 120 117 111 81 99 102 69 68 101 106 80 89 104 112 111 110 112 101 86 97 112 104 102 106 99 89
134 133 133 134 136 139 141 146 151 149 143 144 155 165 167 167 170 174 177 178 177 178 179 181 185 187 187 187 190 189 188 191 200 200 196 202 204 199 203 201 190 184 175 169 189 188 169 168 171 171 172 169 171 172 170 169 160 162 188 192 199 232 312 302 23 45 354 313 310 308 317 112 142 143 140 144 131 103 90 112 117 103 122 125 104
135 135 133 133 135 138 139 138 142 145 143 148 156 161 163 165 167 174 181 181 177 176 177 180 185 185 184 188 190 188 187 191 201 199 196 208 208 201 206 197 182 183 173 171 199 197 174 175 182 184 188 190 190 193 197 204 210 229 249 262 269 274 285 278 228 116 242 290 315 319 307 320 207 201 170 160 153 123 97 106 122 94 106 129 118
126 129 130 131 133 137 136 133 136 140 145 155 157 155 158 163 164 168 175 177 175 174 176 178 180 181 184 186 185 186 185 187 193 191 193 209 205 200 208 194 177 181 175 177 205 201 183 188 192 191 200 209 209 212 219 225 236 253 263 268 267 266 270 260 238 202 212 250 293 332 317 319 279 225 163 156 174 162 154 159 145 140 151 150 141
119 123 125 128 133 133 129 129 136 142 149 155 152 151 157 162 167 170 170 172 176 184 186 180 176 177 182 184 185 188 185 184 186 183 184 199 196 195 204 192 181 187 180 182 202 201 191 199 202 197 205 217 221 227 234 237 249 256 255 261 260 255 260 255 252 252 239 249 262 229 225 259 271 237 183 186 206 201 185 185 180 173 174 168 156
111 115 119 122 125 125 126 132 140 143 146 152 153 153 156 158 163 167 166 165 167 178 186 181 175 174 176 180 183 185 185 186 186 183 184 189 187 192 201 189 182 192 191 193 202 201 196 201 207 208 214 225 229 232 238 240 250 252 248 253 251 247 255 254 256 267 265 267 272 254 233 240 253 259 236 225 244 255 222 211 216 214 210 222 225
101 101 102 102 106 111 117 121 127 135 139 144 150 148 145 145 147 151 156 156 157 169 179 176 172 169 174 182 183 185 189 188 186 187 190 191 187 187 192 189 188 196 203 207 208 206 207 206 206 210 219 227 225 224 224 225 234 244 249 250 248 250 252 250 253 258 254 263 271 260 243 244 252 259 256 253 260 263 244 223 224 228 236 256 267
90 88 85 85 89 95 101 102 103 111 114 114 117 120 124 128 128 131 136 140 147 161 164 156 154 157 166 177 175 175 184 185 185 190 193 196 194 188 185 187 191 197 204 211 211 209 215 217 214 216 223 226 225 223 223 225 230 243 253 251 247 248 243 238 237 234 238 252 254 244 238 239 244 250 253 255 257 254 246 239 238 242 248 260 266
82 78 75 74 75 75 77 80 82 83 85 85 83 83 91 97 100 105 108 110 118 128 128 127 137 149 154 158 158 162 175 183 187 190 190 193 195 195 193 192 195 201 204 208 211 211 215 220 222 224 225 228 230 227 228 233 232 233 242 246 247 249 250 252 253 253 263 267 254 247 248 239 233 242 253 255 253 249 248 247 250 255 260 263 255
75 74 73 71 69 66 65 65 67 69 70 73 76 75 71 72 81 92 91 92 98 97 97 98 99 113 122 121 128 146 161 169 174 180 185 191 196 204 209 208 212 217 214 212 214 215 217 222 226 228 227 232 238 237 235 239 237 233 236 243 251 257 264 269 269 271 279 274 255 249 251 240 230 239 253 255 254 250 247 249 254 260 265 265 251
67 69 70 67 65 66 68 67 65 66 65 63 66 67 63 62 69 70 68 78 93 100 102 102 95 94 102 104 107 125 143 148 156 167 177 188 200 212 220 222 225 229 228 224 223 224 227 228 231 235 234 235 242 247 247 245 246 248 248 248 252 258 264 271 273 275 276 270 255 245 239 231 225 232 247 253 251 247 245 246 250 255 260 259 252
66 67 66 64 63 62 64 67 66 67 70 69 67 63 55 57 68 69 62 66 74 80 84 88 89 90 94 100 101 105 117 131 147 163 171 183 197 210 217 223 230 234 236 234 232 235 237 237 238 242 244 244 244 248 253 254 255 259 258 254 252 256 263 267 269 271 270 262 248 232 223 223 221 227 242 245 240 237 237 237 240 245 250 252 252
68 67 64 62 62 59 60 63 61 63 70 76 81 79 66 56 59 63 67 72 72 69 67 70 74 75 76 78 82 85 82 83 110 143 167 186 198 204 208 219 235 243 246 243 239 241 243 242 242 243 246 250 250 250 254 258 258 259 261 259 255 257 263 262 258 260 258 247 234 222 218 219 216 223 238 239 230 225 225 228 232 235 241 246 248
76 73 69 66 62 57 57 57 56 59 63 64 70 75 75 75 68 62 66 73 73 69 63 60 61 60 65 70 73 86 91 78 78 94 98 203 225 229 225 228 236 244 250 249 243 245 248 246 245 242 243 251 256 257 258 258 258 258 259 258 256 257 257 250 245 242 228 216 214 215 215 212 208 218 230 232 227 215 215 226 233 234 238 241 244
85 84 81 79 75 66 59 58 62 69 66 59 58 57 60 71 75 72 68 62 62 65 54 43 45 42 38 44 50 59 75 72 64 58 38 334 284 282 272 259 252 250 253 251 246 250 252 249 247 246 249 255 260 263 262 260 259 259 258 255 252 247 234 221 215 201 189 187 192 196 199 206 218 225 224 224 229 228 229 240 241 240 244 243 242
87 85 77 76 85 87 74 63 71 90 87 71 65 56 55 65 69 66 60 49 52 63 46 27 25 27 20 24 34 36 38 42 34 9 347 301 272 281 280 276 269 261 259 259 256 256 251 242 241 245 250 255 258 261 262 261 258 255 252 247 235 215 199 199 192 183 187 194 192 188 191 202 216 227 229 229 238 248 255 257 247 240 248 252 247
80 76 66 60 60 59 54 43 34 49 75 55 34 29 48 78 76 61 47 34 35 54 36 15 4 3 5 9 12 10 3 353 343 336 316 291 274 270 268 272 270 261 258 257 254 252 247 239 237 241 244 247 251 254 256 257 253 244 235 224 206 189 184 188 186 189 197 201 197 190 189 196 207 220 230 234 241 247 250 255 253 247 257 270 265
65 64 54 48 49 44 35 26 19 16 16 10 2 357 356 6 8 350 359 1 351 333 334 339 335 332 339 353 357 347 329 310 291 279 273 269 270 268 270 278 273 263 259 257 249 242 240 238 236 240 243 243 245 247 244 240 235 225 212 202 195 189 192 193 193 203 207 202 196 192 191 198 208 215 224 231 234 235 232 236 250 260 273 284 277
75 83 73 56 57 60 42 26 17 10 6 1 351 345 342 336 330 334 341 338 323 306 302 302 296 295 306 324 330 317 304 294 282 272 265 261 261 260 261 269 271 263 255 254 252 245 243 246 245 244 247 245 240 238 231 221 218 212 205 203 197 192 199 198 197 210 217 207 196 195 196 203 212 215 220 225 225 225 221 217 219 227 237 245 250
81 92 96 88 78 79 69 49 25 11 8 354 336 337 340 324 315 322 303 272 267 271 277 280 283 289 295 294 283 277 277 278 279 280 279 276 273 268 261 258 263 265 256 251 253 248 246 251 250 242 244 247 243 237 227 216 214 213 213 211 201 195 205 206 200 206 220 218 208 204 205 205 208 212 215 219 221 220 215 210 209 214 221 228 236
74 63 82 93 86 73 70 62 38 10 344 322 322 332 329 308 291 275 262 261 265 270 273 275 282 286 284 276 271 271 273 275 280 284 286 286 283 277 270 261 257 260 258 254 253 250 248 252 248 237 238 244 245 243 234 223 220 222 222 217 205 199 207 217 209 203 213 223 216 204 204 206 207 215 223 230 236 228 218 215 214 216 220 225 234
75 45 54 79 74 39 37 43 25 356 335 326 330 328 308 295 289 280 277 279 282 284 283 282 281 280 279 280 282 285 286 286 286 285 285 285 284 282 278 271 263 259 258 256 255 250 248 250 247 241 241 241 240 242 242 237 231 227 225 222 211 203 205 216 214 204 205 214 212 199 202 211 218 228 235 242 244 236 224 221 220 222 226 232 241
65 14 29 58 45 15 27 31 12 359 352 346 347 340 328 326 322 311 306 306 306 304 300 295 290 286 285 285 285 285 285 285 284 282 279 278 280 280 279 275 268 261 258 258 258 254 250 249 248 245 243 237 235 241 244 240 232 226 223 220 215 209 205 206 209 207 208 212 214 214 223 235 237 234 238 246 247 236 224 224 228 232 238 245 254
47 351 16 51 43 30 36 26 14 16 12 7 6 357 350 348 339 328 325 324 321 317 313 309 307 304 299 296 292 286 279 275 274 275 274 272 273 273 273 272 270 265 262 259 257 255 253 251 248 244 240 235 235 242 244 234 222 216 215 213 211 210 207 203 207 213 215 218 220 220 226 238 246 243 242 246 246 236 231 233 237 242 249 256 261
68 17 32 57 53 41 39 27 24 27 21 15 11 360 350 339 329 328 327 321 317 314 310 310 310 307 304 303 303 299 294 287 280 275 271 270 272 272 271 269 268 267 266 263 259 256 254 251 248 243 239 237 235 237 238 229 215 209 209 208 206 205 204 205 209 212 214 220 221 220 223 235 243 243 244 250 249 248 250 254 256 261 265 263 252
71 42 49 63 57 44 42 37 31 26 19 16 8 357 351 339 330 327 322 316 313 309 305 306 305 303 302 303 303 303 303 300 297 290 281 274 272 273 272 272 271 270 268 266 264 261 257 253 250 246 242 239 236 232 229 223 216 213 214 214 211 207 205 207 209 211 213 216 217 218 224 234 239 239 243 249 251 257 265 270 277 279 263 242 242
71 59 63 69 62 54 48 41 35 26 20 14 2 352 347 337 331 327 319 315 311 305 303 306 306 305 306 306 305 303 300 301 302 300 294 288 283 279 274 270 269 271 273 270 266 266 265 261 256 253 250 246 244 241 233 222 217 218 220 220 216 210 206 208 209 210 212 214 216 220 226 232 237 237 235 236 245 258 263 263 266 262 245 256 272
80 75 74 69 60 57 49 40 35 26 15 5 356 350 345 338 332 327 321 317 311 304 304 307 306 308 309 308 306 306 303 298 295 292 288 282 279 281 281 274 266 264 268 272 272 273 274 268 258 254 253 250 249 249 244 234 230 228 224 219 216 212 212 218 219 216 215 215 216 220 227 232 235 231 227 232 247 255 246 233 215 196 214 255 280
85 76 68 57 46 43 40 33 29 17 6 359 352 348 346 340 334 330 326 321 315 311 310 309 308 309 307 302 302 306 306 301 296 294 291 280 267 261 265 273 271 264 262 267 272 273 272 268 260 256 254 252 252 254 252 247 246 241 225 215 219 232 239 236 227 220 219 219 217 221 227 230 227 224 223 225 227 226 224 233 245 223 208 219 229
88 74 60 47 36 31 29 24 18 8 360 355 353 350 345 339 334 332 331 327 322 318 315 311 311 310 304 300 300 304 307 304 298 292 291 290 282 267 256 255 263 270 268 265 266 268 269 269 267 265 262 257 253 255 255 250 249 248 232 216 219 236 243 237 226 218 217 218 219 224 225 221 217 219 216 197 196 213 230 245 258 249 220 226 234